#timestamp,LO_Frequency,Hit,StdDev 
1625875215.5,286046996.9,N
1625875235.4,286046996.8,N
1625875255.2,286046999.1,N
1625875275.0,286046997.1,N
1625875275.9,286046997.1,N
1625875295.8,286046997.2,N
1625875315.6,286046996.9,N
1625875335.4,286046996.9,N
1625875355.3,286046997.9,N
1625875375.1,286046996.7,N
1625875395.9,286046996.9,N
1625875415.7,286046997.4,N
1625875435.5,286046999.2,N
1625875455.4,286046997.3,N
1625875475.2,286046996.7,Y
1625875495.0,286046999.8,P
1625875495.9,286046999.8,N
1625875515.8,286047002.7,N
1625875535.6,286047002.6,N
1625875555.5,286047004.3,N
1625875575.3,286047001.8,N
1625875595.1,286047000.7,N
1625875615.9,286046998.1,N
1625875635.7,286047000.5,N
1625875655.5,286047001.0,N
1625875675.4,286046999.9,N
1625875695.2,286047002.5,N
1625875715.0,286047000.1,N
1625875716.0,286047000.1,N
1625875735.8,286047000.6,N
1625875755.6,286047000.5,N
1625875775.5,286047000.5,N
1625875795.3,286046998.7,N
1625875815.1,286046998.1,N
1625875835.9,286047000.6,N
1625875855.7,286047001.2,N
1625875875.6,286047001.2,N
1625875895.4,286047000.5,N
1625875915.2,286046998.8,N
1625875935.1,286047000.8,N
1625875936.0,286047000.8,N
1625875955.8,286047001.0,N
1625875975.6,286047001.0,N
1625875995.5,286047000.5,N
1625876015.3,286047002.4,N
1625876035.2,286047002.1,N
1625876055.9,286047002.5,N
1625876075.7,286047001.9,N
1625876095.6,286047002.0,N
1625876115.4,286047001.9,N
1625876135.2,286046999.7,N
1625876155.1,286046998.2,N
1625876156.0,286046998.2,N
1625876175.8,286047000.2,N
1625876195.7,286047001.0,N
1625876215.5,286047000.5,N
1625876235.3,286047000.8,N
1625876255.2,286047000.6,N
1625876275.9,286046998.8,N
1625876295.7,286046996.7,N
1625876315.6,286047000.8,N
1625876335.4,286047002.3,N
1625876355.2,286047002.6,N
1625876375.1,286047001.4,N
1625876376.0,286047001.4,N
1625876395.8,286047002.8,N
1625876415.7,286047002.4,N
1625876435.5,286046999.9,N
1625876455.3,286046998.2,N
1625876475.2,286046999.8,N
1625876495.0,286046999.7,N
1625876495.9,286046999.7,N
1625876515.8,286047002.8,N
1625876535.6,286046999.7,N
1625876555.4,286047000.2,N
1625876575.3,286047000.3,N
1625876595.1,286047001.1,N
1625876615.8,286046998.5,N
1625876635.7,286047000.0,N
1625876655.5,286047000.8,N
1625876675.4,286047000.6,N
1625876695.2,286047001.1,N
1625876715.0,286046998.2,N
1625876715.9,286046998.2,N
1625876735.8,286046998.8,N
1625876755.6,286046998.5,N
1625876775.5,286046998.2,N
1625876795.3,286047001.0,N
1625876815.1,286047000.8,N
1625876835.9,286046998.1,N
1625876855.7,286046998.2,N
1625876875.5,286046998.9,N
1625876895.4,286046996.9,N
1625876915.2,286046996.5,N
1625876935.1,286046998.8,N
1625876936.0,286046998.8,N
1625876955.8,286047000.7,N
1625876975.6,286047000.9,N
1625876995.5,286047001.2,N
1625877015.3,286046998.8,N
1625877035.1,286046998.8,N
1625877055.9,286046999.3,N
1625877075.7,286046998.8,N
1625877095.6,286046999.2,N
1625877115.4,286046999.3,N
1625877135.2,286046999.1,N
1625877155.1,286046999.2,N
1625877156.0,286046999.2,N
1625877175.8,286046996.7,N
1625877195.6,286046996.8,N
1625877215.5,286046997.1,N
1625877235.3,286046999.1,N
1625877255.2,286046996.5,N
1625877275.9,286046998.9,N
1625877295.7,286046997.2,N
1625877315.6,286046998.6,N
1625877335.4,286046998.6,N
1625877355.2,286046998.4,N
1625877375.1,286046998.6,N
1625877376.0,286046998.6,N
1625877395.8,286046998.4,N
1625877415.7,286047002.4,N
1625877435.5,286047000.4,N
1625877455.3,286047000.0,N
1625877475.2,286046999.8,N
1625877495.0,286047002.3,N
1625877495.9,286047002.3,N
1625877515.7,286047000.8,N
1625877535.6,286046998.1,N
1625877555.4,286047000.9,N
1625877575.3,286047000.5,N
1625877595.1,286047000.4,N
1625877615.8,286046999.8,N
1625877635.7,286047002.4,N
1625877655.5,286047000.2,N
1625877675.4,286047000.1,N
1625877725.2,286047001.9,E
1625877735.1,286047000.6,N
1625877755.9,286046998.6,P
1625877775.7,286046998.7,N
1625877795.6,286047000.3,N
1625877815.4,286047001.0,N
1625877835.2,286046999.8,N
1625877855.1,286047000.2,N
1625877856.0,286047000.2,N
1625877875.8,286047000.9,N
1625877895.6,286047001.0,N
1625877915.5,286047000.6,N
1625877935.3,286047002.8,Y
1625877955.2,286047001.1,P
1625877975.0,286046999.2,N
1625877975.9,286046999.2,N
1625877995.8,286046996.6,Y
1625878015.6,286046998.8,P
1625878035.4,286046999.0,N
1625878055.3,286046996.6,P
1625878075.1,286046998.9,N
1625878095.8,286046997.2,N
1625878115.7,286046999.5,N
1625878135.5,286046998.5,N
1625878155.4,286046999.3,N
1625878175.2,286046999.1,N
1625878195.0,286046998.9,N
1625878195.9,286046998.9,N
1625878215.8,286046996.5,Y
1625878235.6,286047001.0,P
1625878255.5,286047001.0,N
1625878275.3,286047000.3,N
1625878295.1,286047000.4,N
1625878315.9,286047000.9,N
1625878335.7,286047000.8,N
1625878355.6,286047001.2,N
1625878375.4,286047000.5,N
1625878395.2,286047000.2,N
1625878415.1,286047001.4,N
1625878416.0,286047001.4,N
1625878435.8,286047002.2,Y
1625878455.7,286046999.8,P
1625878475.5,286046998.8,N
1625878495.3,286046998.2,N
1625878515.2,286046998.8,N
1625878535.0,286046999.1,N
1625878535.9,286046999.1,N
1625878555.8,286046996.6,Y
1625878575.6,286046997.8,P
1625878595.4,286046997.8,P
1625878615.3,286046997.0,P
1625878635.1,286046999.6,N
1625878655.9,286046998.3,N
1625878675.7,286047000.3,N
1625878695.5,286047000.8,N
1625878715.4,286047000.2,N
1625878735.2,286046999.9,N
1625878755.1,286047000.1,N
1625878756.0,286047000.1,N
1625878775.8,286047000.4,N
1625878795.6,286047000.9,N
